Portsmouth, NH

9:02 PM EDT on April 26, 2018 (GMT -0400)
Pease International Tradeport

Weather History for KPSM - April, 2013

Change the Weather History Date:

Saturday, April 6, 2013

  Actual Average Record
Temperature  
Mean Temperature 36 °F -  
Max Temperature 44 °F 49 °F 79 °F (1991)
Min Temperature 29 °F 31 °F 19 °F (1995)
Degree Days  
Heating Degree Days 29    
Moisture  
Dew Point 4 °F    
Average Humidity 28    
Maximum Humidity 49    
Minimum Humidity 14    
Precipitation  
Precipitation 0.00 in - - ()
Sea Level Pressure  
Sea Level Pressure 30.15 in    
Wind  
Wind Speed 14 mph (WNW)    
Max Wind Speed 24 mph    
Max Gust Speed 34 mph    
Visibility 10 miles    
Events      
Averages and records for this station are not official NWS values.
T = Trace of Precipitation, MM = Missing Value Source: NWS Daily Summary

Daily Weather History Graph

Daily Weather History Graph

Search for Another Location

Airport or City:

Astronomy

Apr. 06, 2013 Rise Set
Actual Time 6:16 AM EDT 7:15 PM EDT
Civil Twilight 5:47 AM EDT 7:44 PM EDT
Nautical Twilight 5:12 AM EDT 8:19 PM EDT
Astronomical Twilight 4:36 AM EDT 8:55 PM EDT
Moon 4:03 AM EDT (4/6) 3:36 PM EDT (4/6)
Length of Visible Light 13h 57m
Length of Day
12h 59m
Waning Crescent, 15% of the Moon is Illuminated
Apr 6
Waning Crescent
Apr 10
New
Apr 18
First Quarter
Apr 25
Full
May 2
Last Quarter

Hourly Weather History & Observations

Time (EDT) Temp. Windchill Dew Point Humidity Pressure Visibility Wind Dir Wind Speed Gust Speed Precip Events Conditions
12:55 AM 36.0 °F 28.0 °F 18.5 °F 49% 29.88 in 10.0 mi WNW 11.5 mph - N/A   Clear
1:55 AM 34.5 °F 26.2 °F 13.1 °F 41% 29.90 in 10.0 mi WNW 11.5 mph - N/A   Clear
2:55 AM 32.5 °F 24.2 °F 11.5 °F 42% 29.92 in 10.0 mi WNW 10.4 mph - N/A   Clear
3:55 AM 32.4 °F 20.3 °F 7.7 °F 36% 29.94 in 10.0 mi WNW 20.7 mph 26.5 mph N/A   Partly Cloudy
4:55 AM 31.3 °F 19.9 °F 3.7 °F 31% 30.00 in 10.0 mi WNW 17.3 mph 34.5 mph N/A   Partly Cloudy
5:55 AM 30.0 °F 19.5 °F 4.1 °F 33% 30.04 in 10.0 mi WNW 13.8 mph 28.8 mph N/A   Partly Cloudy
6:55 AM 29.7 °F 19.6 °F 8.8 °F 42% 30.09 in 10.0 mi WNW 12.7 mph 24.2 mph N/A   Partly Cloudy
7:55 AM 29.8 °F 16.0 °F 4.3 °F 34% 30.13 in 10.0 mi NW 24.2 mph 31.1 mph N/A   Partly Cloudy
8:55 AM 31.1 °F 18.3 °F 3.2 °F 31% 30.14 in 10.0 mi NW 21.9 mph 31.1 mph N/A   Partly Cloudy
9:55 AM 33.6 °F 21.3 °F 1.4 °F 26% 30.16 in 10.0 mi WNW 23.0 mph 32.2 mph N/A   Partly Cloudy
10:55 AM 35.6 °F 25.9 °F 0.9 °F 23% 30.19 in 10.0 mi NW 16.1 mph 24.2 mph N/A   Clear
11:55 AM 37.4 °F 28.2 °F 0.3 °F 21% 30.19 in 10.0 mi NW 16.1 mph 29.9 mph N/A   Clear
12:55 PM 40.1 °F 30.7 °F -0.4 °F 18% 30.20 in 10.0 mi WNW 19.6 mph 28.8 mph N/A   Clear
1:55 PM 41.7 °F 33.4 °F -1.1 °F 17% 30.20 in 10.0 mi NW 17.3 mph 26.5 mph N/A   Clear
2:55 PM 43.2 °F 34.2 °F -0.9 °F 16% 30.20 in 10.0 mi WNW 21.9 mph 25.3 mph N/A   Clear
3:55 PM 43.7 °F 35.7 °F -2.9 °F 14% 30.19 in 10.0 mi NW 18.4 mph 24.2 mph N/A   Clear
4:55 PM 43.9 °F 37.2 °F -3.8 °F 14% 30.21 in 10.0 mi NW 13.8 mph 23.0 mph N/A   Partly Cloudy
5:55 PM 43.5 °F 39.4 °F -1.5 °F 15% 30.24 in 10.0 mi Variable 6.9 mph - N/A   Partly Cloudy
6:55 PM 41.0 °F 35.8 °F 0.7 °F 19% 30.26 in 10.0 mi WNW 8.1 mph - N/A   Scattered Clouds
7:55 PM 39.2 °F 35.0 °F 0.7 °F 20% 30.29 in 10.0 mi WNW 5.8 mph - N/A   Scattered Clouds
8:55 PM 37.6 °F 35.1 °F 4.3 °F 25% 30.32 in 10.0 mi West 3.5 mph - N/A   Scattered Clouds
9:55 PM 33.6 °F - 6.4 °F 32% 30.32 in 10.0 mi Calm Calm - N/A   Scattered Clouds
10:55 PM 31.6 °F - 3.0 °F 30% 30.33 in 10.0 mi Calm Calm - N/A   Scattered Clouds
11:55 PM 30.2 °F - 10.4 °F 44% 30.33 in 10.0 mi Calm Calm - N/A   Scattered Clouds